Weather History for KSYN - April, 2013

Change the Weather History Date:

Saturday, April 6, 2013

  Actual Average (KMSP) Record (KMSP)
Temperature  
Mean Temperature 47 °F 43 °F  
Max Temperature 58 °F 53 °F 86 °F (1991)
Min Temperature 36 °F 33 °F 10 °F (1979)
Degree Days  
Heating Degree Days 18 22  
Month to date heating degree days 141  
Since 1 July heating degree days 6929  
Cooling Degree Days 0 0  
Month to date cooling degree days 0  
Year to date cooling degree days 0  
Moisture  
Dew Point 35 °F    
Average Humidity 71    
Maximum Humidity 90    
Minimum Humidity 57    
Precipitation  
Precipitation 0.08 in 0.08 in 2.58 in (2006)
Month to date precipitation 0.44  
Year to date precipitation 4.00  
Snow  
Snow 0.00 in 0.10 in 6.00 in (1928)
Month to date snowfall 0.7  
Since 1 July snowfall 52.7  
Snow Depth -    
Sea Level Pressure  
Sea Level Pressure 29.64 in    
Wind  
Wind Speed 12 mph (SSE)    
Max Wind Speed 18 mph    
Max Gust Speed 29 mph    
Visibility 9 miles    
Events Rain    
T = Trace of Precipitation, MM = Missing Value Source: NWS Daily Summary

Daily Weather History Graph

Daily Weather History Graph

Search for Another Location

Airport or City:

Trip Planner

Search our weather history database for the weather conditions in past years. The results will help you decide how hot, cold, wet, or windy it might be!

Date:

Astronomy

Apr. 06, 2013 Rise Set
Actual Time 6:43 AM CDT 7:45 PM CDT
Civil Twilight 6:13 AM CDT 8:15 PM CDT
Nautical Twilight 5:38 AM CDT 8:51 PM CDT
Astronomical Twilight 5:01 AM CDT 9:28 PM CDT
Moon 4:36 AM CDT (4/6) 4:07 PM CDT (4/6)
Length of Visible Light 14h 01m
Length of Day
13h 02m
Waning Crescent, 15% of the Moon is Illuminated
Apr 6
Waning Crescent
Apr 10
New
Apr 18
First Quarter
Apr 25
Full
May 2
Last Quarter

Hourly Weather History & Observations

Time (CDT) Temp. Windchill Dew Point Humidity Pressure Visibility Wind Dir Wind Speed Gust Speed Precip Events Conditions
12:13 AM 36.5 °F 27.4 °F 32.0 °F 84% 29.87 in 10.0 mi ESE 15.0 mph 20.7 mph N/A   Scattered Clouds
12:33 AM 36.9 °F 30.1 °F 32.0 °F 83% 29.86 in 10.0 mi ESE 9.2 mph 18.4 mph N/A   Scattered Clouds
12:53 AM 37.4 °F 29.3 °F 31.5 °F 79% 29.85 in 10.0 mi ESE 12.7 mph 19.6 mph N/A   Mostly Cloudy
1:13 AM 37.9 °F 30.5 °F 31.1 °F 76% 29.84 in 10.0 mi SE 11.5 mph 19.6 mph N/A   Scattered Clouds
1:33 AM 38.5 °F 30.3 °F 30.6 °F 73% 29.83 in 10.0 mi SE 13.8 mph 20.7 mph N/A   Mostly Cloudy
1:52 AM 38.7 °F 30.5 °F 30.2 °F 72% 29.82 in 10.0 mi SE 13.8 mph 20.7 mph N/A   Mostly Cloudy
2:13 AM 38.5 °F 31.1 °F 30.2 °F 72% 29.81 in 10.0 mi SE 11.5 mph 20.7 mph N/A   Scattered Clouds
2:33 AM 38.5 °F 31.1 °F 30.2 °F 72% 29.80 in 10.0 mi SE 11.5 mph 20.7 mph N/A   Scattered Clouds
2:52 AM 38.7 °F 32.4 °F 30.0 °F 71% 29.79 in 10.0 mi SE 9.2 mph 17.3 mph N/A   Scattered Clouds
3:13 AM 39.2 °F 31.2 °F 29.8 °F 69% 29.77 in 10.0 mi SE 13.8 mph 19.6 mph N/A   Light Drizzle
3:33 AM 38.7 °F 32.4 °F 30.2 °F 72% 29.76 in 10.0 mi SE 9.2 mph - N/A   Light Drizzle
3:52 AM 41.4 °F 34.3 °F 29.7 °F 63% 29.75 in 10.0 mi SE 12.7 mph 18.4 mph N/A   Overcast
4:13 AM 41.5 °F 33.2 °F 29.5 °F 62% 29.74 in 10.0 mi SE 17.3 mph 23.0 mph N/A   Overcast
4:33 AM 42.3 °F 35.5 °F 29.3 °F 60% 29.73 in 10.0 mi SE 12.7 mph 24.2 mph N/A   Scattered Clouds
4:52 AM 42.4 °F 34.4 °F 29.1 °F 59% 29.72 in 10.0 mi SSE 17.3 mph 25.3 mph N/A   Scattered Clouds
5:13 AM 41.9 °F 35.0 °F 28.8 °F 60% 29.72 in 10.0 mi SSE 12.7 mph 24.2 mph N/A   Mostly Cloudy
5:33 AM 41.4 °F 33.6 °F 28.4 °F 60% 29.71 in 10.0 mi SE 15.0 mph 21.9 mph N/A   Scattered Clouds
5:53 AM 41.2 °F 34.1 °F 27.7 °F 59% 29.70 in 10.0 mi SE 12.7 mph 20.7 mph N/A   Mostly Cloudy
6:13 AM 41.2 °F 32.7 °F 26.8 °F 57% 29.69 in 10.0 mi SE 17.3 mph 27.6 mph N/A   Mostly Cloudy
6:33 AM 41.0 °F 32.2 °F 26.6 °F 57% 29.67 in 10.0 mi SE 18.4 mph 25.3 mph N/A   Overcast
6:53 AM 40.6 °F 33.0 °F 26.4 °F 57% 29.67 in 10.0 mi SE 13.8 mph 28.8 mph N/A   Overcast
7:13 AM 40.6 °F 32.0 °F 26.6 °F 57% 29.66 in 10.0 mi SSE 17.3 mph 23.0 mph N/A   Mostly Cloudy
7:33 AM 40.6 °F 34.3 °F 26.6 °F 57% 29.66 in 10.0 mi SE 10.4 mph 24.2 mph N/A   Mostly Cloudy
7:53 AM 40.5 °F 33.6 °F 26.8 °F 58% 29.66 in 10.0 mi SSE 11.5 mph 18.4 mph N/A   Mostly Cloudy
8:13 AM 41.0 °F 34.7 °F 27.5 °F 59% 29.66 in 10.0 mi SE 10.4 mph 16.1 mph N/A   Mostly Cloudy
8:33 AM 41.0 °F 34.3 °F 27.7 °F 59% 29.65 in 10.0 mi SE 11.5 mph 16.1 mph N/A   Overcast
8:53 AM 40.8 °F 36.9 °F 28.2 °F 61% 29.64 in 10.0 mi SE 5.8 mph 9.2 mph N/A   Overcast
9:13 AM 42.4 °F 36.5 °F 28.9 °F 59% 29.63 in 10.0 mi SSE 10.4 mph 17.3 mph N/A   Overcast
9:33 AM 44.4 °F 37.9 °F 30.0 °F 57% 29.61 in 10.0 mi SE 13.8 mph 21.9 mph N/A   Mostly Cloudy
9:53 AM 45.7 °F 39.5 °F 31.6 °F 58% 29.59 in 10.0 mi SSE 13.8 mph 23.0 mph N/A   Clear
10:12 AM 46.6 °F - 32.4 °F 58% 29.58 in 10.0 mi SSE 13.8 mph 21.9 mph N/A   Clear
10:33 AM 47.8 °F - 33.3 °F 57% 29.57 in 10.0 mi SSE 18.4 mph 21.9 mph N/A   Clear
10:53 AM 48.6 °F - 35.1 °F 60% 29.56 in 10.0 mi SSE 18.4 mph 24.2 mph N/A   Clear
11:12 AM 50.2 °F - 36.5 °F 59% 29.55 in 10.0 mi SSE 12.7 mph 24.2 mph N/A   Clear
11:33 AM 52.0 °F - 38.5 °F 60% 29.55 in 10.0 mi SSE 15.0 mph 23.0 mph N/A   Scattered Clouds
11:53 AM 52.9 °F - 39.4 °F 60% 29.55 in 10.0 mi SSE 13.8 mph 20.7 mph N/A   Scattered Clouds
12:13 PM 55.9 °F - 41.9 °F 59% 29.54 in 10.0 mi South 18.4 mph 21.9 mph N/A   Clear
12:33 PM 55.6 °F - 42.8 °F 62% 29.53 in 10.0 mi South 16.1 mph 20.7 mph N/A   Scattered Clouds
12:53 PM 56.5 °F - 43.5 °F 62% 29.53 in 10.0 mi South 12.7 mph 19.6 mph N/A   Mostly Cloudy
1:13 PM 56.3 °F - 43.3 °F 62% 29.52 in 10.0 mi SSE 10.4 mph - N/A   Overcast
1:33 PM 57.9 °F - 44.4 °F 61% 29.50 in 10.0 mi SSE 9.2 mph - N/A   Mostly Cloudy
1:53 PM 58.6 °F - 45.7 °F 62% 29.49 in 10.0 mi South 6.9 mph - N/A   Overcast
2:13 PM 58.1 °F - 45.7 °F 63% 29.48 in 10.0 mi SSW 8.1 mph - N/A   Overcast
2:33 PM 57.4 °F - 46.8 °F 68% 29.48 in 10.0 mi SSW 4.6 mph - N/A   Overcast
2:53 PM 56.3 °F - 46.6 °F 70% 29.47 in 10.0 mi SSE 5.8 mph - N/A   Overcast
3:13 PM 55.6 °F - 46.4 °F 71% 29.46 in 10.0 mi SSE 3.5 mph - N/A   Overcast
3:33 PM 55.6 °F - 46.8 °F 72% 29.46 in 10.0 mi Calm Calm - N/A   Overcast
3:53 PM 55.4 °F - 46.2 °F 71% 29.46 in 10.0 mi North 3.5 mph - N/A Rain Light Rain
4:13 PM 50.4 °F - 44.6 °F 81% 29.47 in 5.0 mi North 4.6 mph - 0.01 in Rain Heavy Rain
4:33 PM 49.6 °F - 45.5 °F 86% 29.46 in 2.5 mi Calm Calm - 0.06 in Rain Rain
4:53 PM 50.2 °F - 46.4 °F 87% 29.47 in 5.0 mi Calm Calm - 0.08 in Rain Light Rain
5:13 PM 49.1 °F - 45.5 °F 87% 29.49 in 5.0 mi WNW 11.5 mph - N/A   Overcast
5:33 PM 47.1 °F - 43.3 °F 87% 29.51 in 5.0 mi NW 13.8 mph - N/A   Overcast
5:53 PM 46.9 °F - 43.2 °F 87% 29.54 in 5.0 mi NW 15.0 mph 19.6 mph N/A   Light Drizzle
6:13 PM 45.5 °F 38.9 °F 42.3 °F 88% 29.55 in 4.0 mi NW 15.0 mph 19.6 mph N/A   Drizzle
6:33 PM 44.4 °F 37.5 °F 41.0 °F 88% 29.58 in 5.0 mi NW 15.0 mph - N/A   Light Drizzle
6:53 PM 43.9 °F 37.2 °F 41.0 °F 90% 29.59 in 5.0 mi NW 13.8 mph - N/A   Overcast
7:13 PM 43.3 °F 35.8 °F 40.1 °F 88% 29.61 in 5.0 mi NW 16.1 mph - N/A   Overcast
7:33 PM 42.1 °F 34.9 °F 37.6 °F 84% 29.62 in 10.0 mi NW 13.8 mph - N/A   Overcast
7:52 PM 41.5 °F 34.2 °F 37.0 °F 84% 29.63 in 10.0 mi NW 13.8 mph 17.3 mph N/A   Overcast
8:13 PM 40.5 °F 32.1 °F 36.0 °F 84% 29.64 in 10.0 mi WNW 16.1 mph - N/A   Overcast
8:33 PM 40.1 °F 32.4 °F 35.6 °F 84% 29.65 in 10.0 mi WNW 13.8 mph - N/A   Overcast
8:52 PM 39.6 °F 31.7 °F 34.3 °F 82% 29.66 in 10.0 mi NW 13.8 mph 19.6 mph N/A   Mostly Cloudy
9:13 PM 40.1 °F 33.2 °F 34.7 °F 81% 29.67 in 10.0 mi NW 11.5 mph - N/A   Overcast
9:33 PM 39.7 °F 33.2 °F 34.7 °F 82% 29.69 in 10.0 mi WNW 10.4 mph - N/A   Overcast
9:52 PM 39.6 °F 33.0 °F 34.3 °F 82% 29.70 in 10.0 mi NW 10.4 mph 17.3 mph N/A   Overcast
10:13 PM 39.2 °F 31.6 °F 33.8 °F 81% 29.70 in 10.0 mi NW 12.7 mph 18.4 mph N/A   Overcast
10:33 PM 38.3 °F 30.9 °F 33.1 °F 81% 29.71 in 10.0 mi NW 11.5 mph 17.3 mph N/A   Overcast
10:53 PM 38.5 °F 32.1 °F 33.4 °F 82% 29.72 in 10.0 mi NW 9.2 mph - N/A   Overcast
11:13 PM 38.3 °F 31.9 °F 33.3 °F 82% 29.72 in 10.0 mi NW 9.2 mph - N/A   Overcast
11:33 PM 38.3 °F 32.5 °F 33.4 °F 83% 29.73 in 7.0 mi NW 8.1 mph - N/A   Overcast
11:53 PM 37.8 °F 33.3 °F 33.4 °F 84% 29.73 in 7.0 mi NW 5.8 mph - N/A   Overcast